This demonstration page uses our WeatherBlox Daily Observations layout. Learn more.

Left ArrowRight Arrow

36.17497, -115.13722

Hourly Observations for January 16, 2020

Temp ( °F °C ) Dew Point ( °F °C ) Humidity (%) Winds ( mph kmh ) Pressure ( in mb ) Visibility ( mi km ) Precip ( " mm )
12:53 am 00:53 Clear 41 5 27 -2.8 57 57 NW 6 9 30.07 1018 10 16.0934 0 0
1:53 am 01:53 Clear 39 3.9 26 -3.3 60 60 Calm 30.08 1019 10 16.0934 0 0
2:53 am 02:53 Clear 38 3.3 26 -3.3 62 62 WNW 6 9 30.09 1019 10 16.0934 0 0
3:53 am 03:53 Clear 38 3.3 26 -3.3 62 62 WNW 6 9 30.07 1018 10 16.0934 0 0
4:53 am 04:53 Clear 37 2.8 26 -3.3 65 65 NW 5 7 30.08 1019 10 16.0934 0 0
5:53 am 05:53 Clear 36 2.2 26 -3.3 67 67 WNW 3 6 30.1 1019 10 16.0934 0 0
6:53 am 06:53 Sunny 37 2.8 26 -3.3 65 65 W 5 7 30.09 1019 10 16.0934 0 0
7:53 am 07:53 Sunny 40 4.4 27 -2.8 60 60 Calm 30.08 1019 10 16.0934 0 0
8:53 am 08:53 Sunny 45 7.2 29 -1.7 54 54 Calm 30.09 1019 10 16.0934 0 0
9:53 am 09:53 Sunny 50 10 29 -1.7 44 44 Calm 30.1 1019 10 16.0934 0 0
10:53 am 10:53 Sunny 52 11.1 28 -2.2 40 40 SE 5 7 30.08 1019 10 16.0934 0 0
11:53 am 11:53 Sunny 55 12.8 28 -2.2 35 35 ESE 7 11 30.02 1017 10 16.0934 0 0
12:53 pm 12:53 Sunny 56 13.3 28 -2.2 34 34 SE 6 9 29.98 1015 10 16.0934 0 0
1:53 pm 13:53 Sunny 58 14.4 28 -2.2 32 32 E 5 7 29.96 1015 10 16.0934 0 0
2:53 pm 14:53 Sunny 60 15.6 28 -2.2 30 30 ENE 7 11 29.93 1014 10 16.0934 0 0
3:53 pm 15:53 Sunny 59 15 30 -1.1 33 33 ENE 6 9 29.92 1013 10 16.0934 0 0
4:53 pm 16:53 Clear 54 12.2 30 -1.1 40 40 ENE 6 9 29.91 1013 10 16.0934 0 0
5:53 pm 17:53 Clear 52 11.1 29 -1.7 41 41 ENE 9 15 29.9 1013 10 16.0934 0 0
6:53 pm 18:53 Clear 51 10.6 28 -2.2 41 41 E 6 9 29.91 1013 10 16.0934 0 0
7:53 pm 19:53 Clear 51 10.6 28 -2.2 41 41 ENE 5 7 29.91 1013 10 16.0934 0 0
8:53 pm 20:53 Clear 51 10.6 27 -2.8 39 39 SSE 7 11 29.91 1013 10 16.0934 0 0
9:53 pm 21:53 Clear 54 12.2 22 -5.6 29 29 S 13 20 29.93 1014 10 16.0934 0 0
10:53 pm 22:53 Mostly Clear 53 11.7 26 -3.3 35 35 S 13 20 29.95 1014 10 16.0934 0 0
11:19 pm 23:19 Mostly Cloudy 52 11.1 28 -2.2 40 40 WSW 17 28 29.93 1013 10 16.0934 0 0
11:53 pm 23:53 Cloudy 50 10 32 0 50 50 WSW 22 35 29.97 1015 10 16.0934 0 0

Powered by AerisWeather